This demonstration page uses our WeatherBlox Daily Observations layout. Learn more.

Left ArrowRight Arrow

Hourly Observations for January 22, 2016

Temp ( °F °C ) Dew Point ( °F °C ) Humidity (%) Winds ( mph kmh ) Pressure ( in mb ) Visibility ( mi km ) Precip ( " mm )
12:53 am 00:53 Cloudy with Rain 45 7.2 42 5.6 90 90 E 10 17 29.98 1015 5 8 0.16 4.06
1:53 am 01:53 Cloudy with Rain 45 7.2 42 5.6 90 90 ESE 15 24 29.92 1013 5 8 0.14 3.56
2:11 am 02:11 Cloudy with Rain 45 7.2 41 5 86 86 E 15 24 29.94 1014 6 10 0.03 0.76
2:53 am 02:53 Cloudy with Light Rain 45 7.2 41 5 86 86 E 15 24 29.86 1011 8 13 0.13 3.30
3:53 am 03:53 Cloudy with Rain 45 7.2 41 5 86 86 SSE 10 17 29.84 1010 6 10 0.11 2.79
4:53 am 04:53 Cloudy with Heavy Rain 45 7.2 41 5 86 86 ESE 15 24 29.85 1011 3 4 0.29 7.37
4:57 am 04:57 Cloudy with Heavy Rain 45 7.2 41 5 86 86 E 14 22 29.85 1011 3 5 0.02 0.51
5:53 am 05:53 Cloudy with Rain 45 7.2 41 5 86 86 E 15 24 29.80 1009 5 8 0.23 5.84
6:53 am 06:53 Cloudy 45 7.2 41 5 86 86 E 17 28 29.72 1006 10 16 0.03 0.76
7:53 am 07:53 Cloudy 44 6.7 40 4.4 85 85 E 9 15 29.72 1006 10 16 0.00 0.00
8:53 am 08:53 Cloudy 42 5.6 39 3.9 89 89 E 9 15 29.71 1006 10 16 0.00 0.03
9:45 am 09:45 Cloudy with Rain 41 5 38 3.3 89 89 E 12 19 29.74 1007 2 3 0.05 1.27
9:53 am 09:53 Cloudy with Light Rain 41 5 39 3.9 93 93 E 13 20 29.71 1006 3 4 0.06 1.52
10:53 am 10:53 Cloudy with Light Rain 41 5 38 3.3 89 89 NE 10 17 29.70 1006 3 4 0.09 2.29
11:53 am 11:53 Cloudy with Light Rain 40 4.4 37 2.8 89 89 ENE 17 28 29.65 1004 6 10 0.03 0.76
12:53 pm 12:53 Cloudy 40 4.4 36 2.2 86 86 ENE 14 22 29.62 1003 8 13 0.00 0.03
1:37 pm 13:37 Cloudy with Heavy Rain 39 3.9 35 1.7 86 86 E 17 28 29.62 1003 2 3 0.09 2.29
1:50 pm 13:50 Cloudy with Nearby Thunderstorms 39 4 36 2 87 87 ENE 14 22 29.59 1002 3 5 0.00 0.00
1:51 pm 13:51 Cloudy with Nearby Thunderstorms 39 4 36 2 87 87 NE 13 20 29.59 1002 3 5 0.00 0.00
2:06 pm 14:06 Cloudy 37 3 36 2 93 93 NE 12 19 29.59 1002 10 16 0.00 0.00
2:53 pm 14:53 Cloudy with Light Rain 38 3.3 34 1.1 86 86 ENE 7 11 29.60 1002 4 6 0.03 0.76
3:43 pm 15:43 Cloudy with Light Rain 37 2.8 34 1.1 89 89 NNE 7 11 29.62 1003 10 16 0.02 0.51
3:53 pm 15:53 Cloudy with Light Rain 37 2.8 34 1.1 89 89 NE 7 11 29.61 1003 7 11 0.02 0.51
4:27 pm 16:27 Cloudy with Light Rain 37 2.8 34 1.1 89 89 NNE 8 13 29.62 1003 7 11 0.00 0.03
4:53 pm 16:53 Cloudy with Light Rain 37 2.8 33 0.6 86 86 NE 6 9 29.62 1003 10 16 0.01 0.25
5:53 pm 17:53 Cloudy 36 2.2 33 0.6 89 89 ENE 8 13 29.64 1004 8 13 0.00 0.03
6:11 pm 18:11 Cloudy 36 2.2 32 0 86 86 ENE 6 9 29.68 1005 9 14 0.00 0.00
6:53 pm 18:53 Cloudy with Mist and Fog 35 1.7 33 0.6 93 93 NE 6 9 29.66 1004 4 6 0.00 0.00
7:24 pm 19:24 Cloudy with Light Rain 36 2 32 0 87 87 Calm 29.71 1006 5 8 0.00 0.00
7:45 pm 19:45 Cloudy with Light Rain 35 1.7 32 0 89 89 Calm 29.71 1006 6 10 0.00 0.03
7:53 pm 19:53 Cloudy with Light Rain 35 1.7 32 0 89 89 Calm 29.68 1005 6 10 0.00 0.03
8:08 pm 20:08 Cloudy with Light Snow 36 2 32 0 87 87 Calm 29.71 1006 5 8 0.00 0.00
8:32 pm 20:32 Cloudy with Light Snow 34 1 32 0 93 93 NW 3 6 29.71 1006 3 5 0.00 0.00
8:53 pm 20:53 Cloudy with Light Snow 34 1.1 31 -0.6 89 89 N 5 7 29.69 1005 3 4 0.02 0.51
9:18 pm 21:18 Cloudy 34 1 30 -1 87 87 NW 8 13 29.71 1006 7 11 0.00 0.00
9:31 pm 21:31 Cloudy 34 1.1 30 -1.1 85 85 WNW 7 11 29.71 1006 10 16 0.00 0.03
9:47 pm 21:47 Cloudy 34 1 30 -1 87 87 W 9 15 29.71 1006 9 14 0.00 0.00
9:53 pm 21:53 Cloudy 34 1.1 29 -1.7 82 82 W 8 13 29.69 1005 8 13 0.00 0.03
10:53 pm 22:53 Cloudy with Light Snow 32 0 29 -1.7 88 88 W 7 11 29.70 1006 5 8 0.00 0.03
11:10 pm 23:10 Cloudy with Light Snow 32 0 28 -2 87 87 W 8 13 29.71 1006 5 8 0.00 0.00
11:48 pm 23:48 Cloudy with Light Snow 32 0 28 -2 87 87 WNW 8 13 29.71 1006 2 3 0.00 0.00
11:53 pm 23:53 Cloudy with Light Snow 32 0 28 -2.2 85 85 WNW 8 13 29.70 1006 3 5 0.00 0.03

Powered by AerisWeather